Date/Time (UTC),PHv2,PWv2,PTv2,PSv3,PHv3,PWv3,PTv3,MESH,VIL,CompRef,Ref -20C,Flash Rate,Max Flash Density,LJA sigma-level,Max 0-2km AzShear,LLAZ 98th%,MLAZ 98th%,MUCAPE,MLCAPE,CAPE -10C to -30C,MLCIN,SRH 0-1km AGL,EBShear,MeanWind 0-1km AGL,Norm. Sat. Growth Rate,ICP,PWAT,WBZ,AvgBeamHgt,STP(eff),DCAPE,ESRH,LLLR,MLLR
2024/04/26 20:12,3,1,4,7,3,3,2,0,5,47.5,35,1,0.03,0,4,3,3,2588,1958,791,2,268,54,50,0,0,1.1,7.8,2.32,0,791,0,7.9,8.5
2024/04/26 20:14,3,2,4,15,12,7,5,0.13,8,50.5,44,2,0.07,0,4,3,4,2579,1951,800,2,268,53,50,0,0,1.1,7.8,2.25,0,776,0,7.9,8.6
2024/04/26 20:16,3,2,3,15,12,8,5,0.14,8,50.5,45,2,0.07,0,4,3,4,2563,1951,817,2,263,53,50,0,0,1.2,7.8,2.17,0,773,0,7.8,8.6
2024/04/26 20:18,5,2,3,21,15,9,9,0.23,10,54.5,47,2,0.07,0,5,3,4,2532,1926,824,2,261,52,50,0,0,1.2,7.8,2.13,0,759,0,7.8,8.6
2024/04/26 20:20,6,22,3,29,21,13,9,0.25,17,57.5,46,2,0.11,0,3,3,7,2507,1926,849,2,257,51,50,0,0,1.2,7.8,2.01,0,758,0,7.8,8.6
2024/04/26 20:22,25,37,3,49,42,16,11,0.72,28,59.0,53,4,0.11,0,3,3,6,2465,1926,850,2,257,50,51,0,0,1.2,7.8,1.93,0,758,0,7.8,8.6
2024/04/26 20:24,32,46,3,58,48,14,10,0.81,32,62.0,56,4,0.11,0,4,3,6,2447,1908,868,2,257,50,51,0,0,1.2,7.8,1.84,0,753,0,7.8,8.6
2024/04/26 20:26,32,40,3,55,44,14,10,0.81,32,62.5,56,4,0.12,0,4,3,5,2418,1903,882,2,257,49,51,0,0,1.2,7.8,1.79,0,746,0,7.8,8.7
2024/04/26 20:28,32,40,3,60,50,16,11,0.81,36,64.0,57,6,0.12,0,3,3,6,2418,1898,891,2,258,49,51,0,1,1.2,7.8,1.71,0,747,0,7.8,8.6
2024/04/26 20:30,48,55,4,62,53,19,14,1.08,36,64.0,60,6,0.16,0,4,4,6,2395,1873,905,2,264,48,52,0,1,1.2,7.7,1.61,0,742,0,7.8,8.7
2024/04/26 20:32,48,55,4,63,58,21,16,1.08,36,64.0,57,6,0.16,0,5,4,6,2395,1873,913,2,269,48,52,0,3,1.3,7.7,1.52,0,742,0,7.8,8.7
2024/04/26 20:34,48,58,6,67,53,26,17,1.08,36,64.5,56,6,0.16,0,6,5,6,2395,1848,917,2,280,48,52,0,0,1.3,7.7,1.46,0,741,0,7.8,8.7
2024/04/26 20:36,28,59,6,59,49,23,16,0.79,30,64.5,56,6,0.16,0,6,5,6,2395,1839,917,2,280,48,53,0,0,1.3,7.7,1.41,0,741,0,7.8,8.7
2024/04/26 20:38,25,60,6,60,49,24,15,0.74,30,64.5,55,6,0.16,0,6,5,7,2399,1838,921,2,300,48,53,0,0,1.3,7.7,1.26,0,740,0,7.7,8.7
2024/04/26 20:40,22,44,4,49,33,17,12,0.67,25,63.5,50,4,0.16,0,5,4,6,2427,1838,922,2,300,49,53,0,0,1.3,7.7,1.23,0,740,0,7.7,8.7
2024/04/26 20:42,22,44,4,48,36,17,12,0.67,25,63.5,50,4,0.16,0,5,4,6,2427,1838,922,2,300,49,53,0,1,1.3,7.7,1.22,0,740,0,7.7,8.7
2024/04/26 20:44,9,39,5,48,34,19,15,0.4,25,63.5,50,8,0.17,0,6,4,6,2427,1883,880,3,288,52,54,0,19,1.3,7.8,0.75,0,726,0,7.4,8.7
2024/04/26 20:46,13,32,5,47,40,19,15,0.49,20,63.0,52,8,0.17,0,6,4,6,2484,1843,899,3,314,52,54,0,8,1.3,7.7,1.04,0,732,0,7.6,8.7
2024/04/26 20:48,18,42,5,48,34,22,17,0.57,23,61.5,51,8,0.17,0,5,4,7,2426,1859,864,3,284,52,54,0,21,1.3,7.8,0.69,0,721,0,7.3,8.7
2024/04/26 20:50,18,42,4,48,43,15,16,0.57,23,62.0,53,8,0.17,0,5,4,6,2490,1844,880,3,314,54,54,0,15,1.3,7.8,0.93,0,726,0,7.6,8.7
2024/04/26 20:52,15,50,6,53,40,24,23,0.57,25,62.0,52,10,0.17,1.6,6,5,7,2330,1844,864,3,274,53,54,0,34,1.2,7.8,0.48,0,722,0,7.2,8.6
2024/04/26 20:54,43,70,15,73,59,36,44,0.85,39,62.0,54,15,0.17,1.1,10,6,8,2305,1823,850,3,259,52,54,0,48,1.2,7.8,0.4,0,727,0,7.3,8.5
2024/04/26 20:56,94,95,61,88,75,53,54,1.43,50,66.0,60,52,0.39,9.0,27,7,10,2141,1676,802,2,246,47,52,0,64,1.2,7.8,0.44,0,722,0,7.2,8.4
2024/04/26 20:58,94,95,71,87,70,52,51,1.45,50,66.5,60,57,0.39,0.4,20,8,11,2101,1492,667,4,230,44,50,0,66,1.2,7.8,0.4,0,670,0,7.6,8.2
2024/04/26 21:00,94,95,75,87,75,53,52,1.45,50,66.5,60,57,0.39,0,20,9,9,2094,1484,669,4,230,44,50,0,66,1.2,7.8,0.44,0,667,0,7.6,8.2
2024/04/26 21:02,93,95,81,88,75,53,54,1.45,47,68.0,60,57,0.39,0.3,29,10,9,2057,1486,671,4,230,45,50,0,64,1.2,7.8,0.45,0,666,0,7.6,8.2
2024/04/26 21:04,92,95,81,87,76,53,54,1.32,47,68.0,58,57,0.39,0.1,34,10,11,2035,1523,674,4,230,45,50,0,63,1.2,7.8,0.45,0,660,0,7.5,8.3
2024/04/26 21:06,92,95,84,87,75,56,54,1.28,42,68.0,57,60,0.39,0.3,37,11,11,2028,1526,676,4,230,45,49,0,66,1.2,7.8,0.45,0,658,0,7.5,8.3
2024/04/26 21:08,91,95,86,84,69,52,53,1.16,42,65.0,54,60,0.39,-6,37,11,8,2154,1577,669,8,239,45,48,0,54,1.2,7.8,0.28,0,666,0,7.7,8.3
2024/04/26 21:10,88,97,84,83,70,54,54,1.06,38,65.0,56,60,0.39,1.5,37,11,10,1977,1541,680,4,230,45,49,0,65,1.2,7.8,0.45,0,652,0,7.4,8.3
2024/04/26 21:12,80,95,64,82,56,54,50,0.87,38,64.5,55,60,0.39,0,47,8,9,1977,1539,682,4,230,45,49,0,58,1.2,7.8,0.45,0,651,0,7.4,8.4
2024/04/26 21:14,77,95,64,80,69,50,50,0.94,38,64.5,56,49,0.39,0,38,8,9,1981,1541,682,4,227,45,49,0,58,1.2,7.8,0.44,0,651,0,7.3,8.4
2024/04/26 21:16,77,95,58,79,70,46,51,0.94,38,64.5,56,49,0.39,0,38,8,7,2065,1571,681,6,226,45,48,0,61,1.2,7.8,0.22,0,671,0,7.5,8.5
2024/04/26 21:18,81,97,58,80,70,44,52,1.06,40,64.5,58,43,0.39,0.3,38,8,6,2066,1575,681,6,225,45,48,0,65,1.2,7.8,0.21,0,671,0,7.5,8.6
2024/04/26 21:20,82,94,24,78,57,41,46,1.15,40,63.5,58,40,0.39,0,12,7,6,2065,1560,681,6,225,45,48,0,67,1.2,7.8,0.21,0,671,0,7.5,8.6
2024/04/26 21:22,75,92,23,80,68,44,48,1.15,40,65.0,58,31,0.39,0.3,12,7,5,1981,1523,682,6,230,45,48,0,70,1.2,7.7,0.24,0,662,0,7.4,8.6
2024/04/26 21:24,75,92,27,80,72,42,48,1.15,43,65.0,58,31,0.39,0.2,12,7,7,1996,1523,682,5,226,45,48,0,72,1.2,7.8,0.22,0,671,0,7.4,8.6
2024/04/26 21:26,80,97,27,80,73,41,48,1.2,43,65.0,60,34,0.39,0.8,10,7,7,1975,1505,683,5,230,45,49,0,76,1.2,7.7,0.24,0,668,0,7.4,8.6
2024/04/26 21:28,86,97,24,82,72,40,46,1.38,45,65.0,60,34,0.39,0,10,7,7,1975,1505,683,5,225,45,49,0,80,1.2,7.8,0.23,0,671,0,7.4,8.6
2024/04/26 21:30,86,94,34,83,73,44,52,1.38,45,65.0,60,34,0.39,0,16,7,7,1974,1478,683,4,225,45,49,0,80,1.2,7.8,0.27,0,671,0,7.4,8.6
2024/04/26 21:32,89,95,40,84,71,47,53,1.56,45,63.0,60,34,0.38,0.1,16,7,8,1955,1456,683,4,226,45,49,0,74,1.2,7.8,0.34,0,668,0,7.4,8.6
2024/04/26 21:34,91,95,40,84,75,45,53,1.61,45,64.0,62,39,0.38,2.8,16,7,8,1909,1456,683,3,227,45,50,0,66,1.2,7.8,0.38,0,656,0,7.3,8.5
2024/04/26 21:36,91,95,32,85,65,48,47,1.61,47,64.5,61,39,0.38,0,14,6,8,1899,1456,683,3,227,45,50,0,66,1.2,7.8,0.41,0,656,0,7.3,8.5
2024/04/26 21:38,92,95,30,84,75,43,47,1.61,48,64.5,62,40,0.41,0.6,7,6,8,1893,1456,684,3,230,45,50,0,68,1.2,7.8,0.47,0,654,0,7.3,8.5
2024/04/26 21:40,93,95,40,86,67,43,47,1.7,53,66.0,62,42,0.55,0.5,7,6,9,1893,1459,686,2,231,45,50,0,73,1.2,7.8,0.55,0,642,0,7.2,8.5
2024/04/26 21:42,93,95,17,85,78,33,32,1.7,55,66.5,62,42,0.55,0.2,7,6,9,1899,1467,686,2,230,45,50,0,72,1.2,7.8,0.55,0,642,0,7.3,8.5
2024/04/26 21:44,93,95,15,84,76,29,31,1.7,55,66.5,61,42,0.62,0,7,5,8,1899,1478,687,2,231,45,50,0,72,1.2,7.8,0.6,0,641,0,7.2,8.5
2024/04/26 21:46,93,95,15,86,74,34,31,1.7,55,66.5,60,42,0.62,-1,7,5,8,1931,1492,690,2,230,45,50,0,73,1.2,7.8,0.61,0,641,0,7.3,8.4
2024/04/26 21:48,96,95,16,84,74,31,31,1.57,54,66.5,56,42,0.62,0,7,5,9,1931,1492,690,1,231,45,50,0,61,1.2,7.8,0.71,0,640,0,7.2,8.4
2024/04/26 21:50,94,95,16,80,66,28,31,1.35,51,66.5,56,39,0.62,-1,7,5,8,1919,1486,691,1,232,45,50,0,50,1.2,7.8,0.76,0,637,0,7.2,8.4
2024/04/26 21:52,91,97,57,82,72,43,48,1.17,47,66.5,58,48,0.62,11.0,15,8,9,1910,1486,726,0,230,43,50,0,52,1.3,7.8,1.2,0,654,0,7.2,8.3
2024/04/26 21:54,95,95,69,85,73,51,48,1.26,47,67.5,60,59,0.62,1.8,15,10,10,1899,1478,727,0,231,43,50,0,23,1.3,7.8,1.29,0,654,0,7.2,8.3
2024/04/26 21:56,95,95,79,85,73,50,52,1.26,47,67.5,60,64,0.62,0.8,18,10,9,1895,1472,729,0,232,43,50,0,28,1.3,7.8,1.32,0,648,0,7.2,8.3
2024/04/26 21:58,95,95,82,85,71,57,44,1.26,44,67.5,59,64,0.62,0,18,10,10,1692,1395,616,1,230,49,48,0,46,1.3,8.2,1.39,0,591,0,6.7,8.6
2024/04/26 22:00,93,95,85,85,73,56,45,1.18,44,67.5,60,64,0.62,0.1,21,11,9,1668,1392,616,1,231,49,48,0,68,1.3,8.1,1.5,0,590,0,6.6,8.7
2024/04/26 22:02,92,95,85,85,74,57,45,1.14,44,67.0,56,64,0.62,-1,21,11,10,1661,1388,616,1,236,49,49,0,64,1.3,8.1,1.55,0,587,0,6.6,8.7
2024/04/26 22:04,91,95,84,84,72,57,45,1.14,43,65.0,58,59,0.62,-1,21,11,9,1661,1395,616,1,237,49,49,0,51,1.3,8.0,1.57,0,587,0,6.6,8.7
2024/04/26 22:06,90,97,83,82,71,55,43,1.02,42,65.0,58,59,0.62,-2,24,10,8,1776,1515,611,1,230,49,49,0,29,1.3,8.0,1.49,0,582,0,6.6,8.6
2024/04/26 22:08,88,97,63,78,69,47,42,1.02,39,64.0,56,52,0.62,0.3,10,7,8,1772,1526,611,1,237,49,49,0,57,1.3,8.0,1.54,0,586,0,6.6,8.6
2024/04/26 22:10,85,97,34,73,62,45,33,1.02,42,61.5,56,42,0.62,0,10,7,8,1772,1526,611,1,239,49,49,0,54,1.3,7.9,1.61,0,598,0,6.6,8.7
2024/04/26 22:12,69,90,33,70,63,39,34,0.94,42,62.0,54,32,0.62,0,10,7,8,1675,1506,610,0,242,50,50,0,65,1.3,7.9,1.84,0,608,0,6.5,8.7
2024/04/26 22:14,69,90,26,69,58,40,37,0.94,42,62.0,54,32,0.62,0,7,6,8,1600,1479,611,1,242,50,50,0,57,1.3,7.9,1.89,0,613,0,6.5,8.7
2024/04/26 22:16,46,83,19,64,51,35,23,0.77,38,62.0,52,27,0.56,-1,8,7,8,1600,1446,615,1,242,50,50,0,63,1.3,7.9,1.99,0,623,0,6.5,8.8
2024/04/26 22:18,37,76,19,65,45,34,27,0.74,36,62.0,50,24,0.56,-2,8,7,5,1600,1420,620,0,242,50,51,0,65,1.3,7.8,2.17,0,634,0,6.5,8.9
2024/04/26 22:20,25,71,19,60,48,33,26,0.64,32,61.5,52,20,0.56,-1,8,7,5,1600,1385,620,0,243,50,51,0,68,1.3,7.8,2.21,0,638,0,6.5,8.9
2024/04/26 22:22,23,55,9,55,34,30,21,0.61,27,60.0,51,16,0.54,0,7,6,5,1537,1366,621,0,247,50,52,0,65,1.3,7.8,2.32,0,643,0,6.6,8.9
2024/04/26 22:24,23,53,8,51,29,28,19,0.61,27,60.0,48,15,0.51,7.0,8,6,5,1588,1332,619,0,247,50,53,0,30,1.3,7.8,2.46,0,643,0,6.6,8.9
2024/04/26 22:26,14,55,8,50,30,29,19,0.53,26,60.0,49,15,0.51,0,8,6,6,1534,1325,621,0,253,50,53,0,17,1.3,7.8,2.51,0,651,0,6.6,8.9
2024/04/26 22:28,10,53,8,48,22,30,19,0.43,25,59.5,47,15,0.51,0,8,6,6,1467,1278,619,1,266,50,55,0,8,1.3,7.8,2.67,0,650,0,6.6,8.9
2024/04/26 22:30,10,53,7,37,13,26,18,0.43,24,59.5,44,15,0.5,0,7,6,4,1522,1278,619,0,264,50,55,0,5,1.3,7.8,2.77,0,650,0,6.6,8.9
2024/04/26 22:32,5,32,7,34,11,23,17,0.31,19,59.5,44,8,0.5,0,7,6,4,1522,1270,621,0,264,49,55,0,6,1.3,7.8,2.87,0,643,0,6.6,8.9
2024/04/26 22:34,3,24,6,30,6,19,16,0.18,17,57.5,42,7,0.5,0,7,6,4,1462,1228,621,1,269,49,55,0,2,1.3,7.8,3.05,0,635,0,6.6,8.8
2024/04/26 22:36,2,12,4,18,3,12,11,0.18,13,56.5,40,3,0.5,0,6,5,3,1462,1228,621,1,269,48,55,0,1,1.3,7.8,3.14,0,628,0,6.6,8.8
